Showing default

COSMOS 2304, 23446

Orbit data source: Space-Track

COSMOS 2304, 23446 is a payload satellite owned by VKS (CIS) in LEO that was launched on Mon, 26 Dec 1994 UTC via a TSIKLON-3 launch vehicle from the Plesetsk Missile And Space Complex (PKMTR). Payload-class satellites include a variety of spacecraft equipped with specific instruments for various scientific and technological missions. These include communications satellites like Starlink; space stations such as the ISS; scientific satellites like the Hubble; Earth observation satellites from companies like Planet Labs, Umbra, and HawkEye 360; GPS; miniature CubeSats for education and research; and military/defense satellites.

Loading next visibility...
Identifier
23446, 1994-086F
Orbit
LEO
Country
Flag of CISCIS
Related business
Manufacturer
NPO PM
Mission
Defense Communications
Bus & Motor
STRELA-3, Unknown motor
Mass
225 kg wet, 225 kg dry
Launch date (UTC)
1994-12-26 (31 years ago)
Launch vehicle
TSIKLON-3
Launch site
Plesetsk Missile And Space Complex (PKMTR)
Object type
Payload
Rocket body
Debris
Shape & HBR
Cyl, 0.8 m
Radar Cross Section
1.257 m², Medium (>0.1 m² and < 1m²)

Expand to show TLE details & history
Last TLE update: 6 hours ago

TLE from 6 hours ago
0 COSMOS 2304
1 23446U 94086F   26071.32502422  .00000036  00000-0  14350-3 0  9997
2 23446  82.5746  22.0630 0005055  44.0650 123.7692 12.62201948437469
Epoch: 2026-03-12T07:48Z
TLE epoch observation values (Epoch: 2026-03-12T07:48:02.092Z)
Latitude
11.97447°
Longitude
-86.49837°
Altitude
1,418.04 km
Speed
7.152 km/s
True Right ascension
13h 21m 56s
True Declination
11° 54' 39"
Sunlit
Object was in full shadow at epoch
Visualization orbit readout
Latitude
Unknown
Longitude
Unknown
Altitude
Unknown
Speed
Unknown
Apparent Right ascension
Unknown
Apparent Declination
Unknown
Sunlit
N/A
Visualization observer readout
Local Sidereal Time
17:48:16
Azimuth
Unknown
Elevation
Unknown
Doppler factor
Unknown
Orbital elements
Apogee altitude
1,415.127 km
Perigee altitude
1,407.252 km
Semi-major axis
7,789.327 km
Eccentricity
0.00051
Inclination
82.5746°
RAAN
22.063°
Arg. of periapsis
44.065°
True anomaly
123.81734°
Mean anomaly
123.7692°
Eccentric anomaly
123.79327°
Mean motion
3.15714 °/min
Orbital period
114.03 mins
BSTAR
0.0001435
Loading maneuver chart data...
Computing Atmospheric mass density...
Loading historical data...
Loading historical data...
Loading historical data...
Loading historical data...
Loading historical data...
Loading historical data...
Loading historical data...

Documentation

Showing up to 5 results
|